Location: Berlin
(52.5171°N, 13.3759°E)
Time: 10:11:41
(UTC+01:00)

ISS - Pass Details

Date: 11 January 2018
Orbit: 402 x 406 km, 51.6° (Epoch: 16 January)

Event Time Altitude Azimuth Distance (km) Brightness Sun altitude
Exits shadow 05:42:24 40° 156° (SSE) 614 -2.8 -21.9°
Drops below altitude 10° 05:44:51 10° 123° (ESE) 1,463 -0.1 -21.5°
Sets 05:46:58 0° 118° (ESE) 2,323 1.3 -21.2°
